sim
Sign-in with your pilot id or email,
or register
Callsign
Passwort

Schedule Details

Flight Number: EWG9654
Departure: Dusseldorf International Airport (EDDL) at 06:25
Arrival: Thessaloniki International Airport (LGTS) at 09:05
Route: Eurowings Passenger Schedule. Enter filed route here before submitting Pirep.

Weather Information
Getting current METAR information for EDDL 192250Z 34003KT CAVOK 12/05 Q1028 NOSIG
Getting current METAR information for LGTS 192250Z 15005KT 9999 FEW020 13/09 Q1023 NOSIG

Schedule Frequency

Route Map